Volver al catálogo

OPS 5712

P/L 152

ActivoNavegaciónLEO
NORAD 2873·PAYLOAD·🇺🇸 United States

Lanzado May 31, 1967 desde Vandenberg Space Force Base

Loading…

Próximos Pases (próximas 24 horas)

TLE

ActualizadoSource: Space-Track

Época: Sep 14, 2026, 08:57 UTC

1 02873U 67053G   26257.37341639  .00000032  00000-0  59953-4 0  9999
2 02873  69.9730 218.3224 0006571  16.5690 146.2488 13.98542976 20979

Sigue OPS 5712 en tiempo real con AllMySat

Download on the App Store